Location: Béaulencourt
(50.0796°N, 2.8795°E)
Time: 05:01:07
(UTC+00:00)

ARIANE 6 FM1 Upper Stage - Pass Details

Date: 17 March 2026
Orbit: 525 x 604 km, 62.0° (Epoch: 17 April)

Event Time Altitude Azimuth Distance (km) Brightness Sun altitude
Exits shadow 04:22:34 28° 280° (W) 1,027 3.5 -16.0°
Maximum altitude 04:24:03 39° 326° (NW) 817 3.3 -15.7°
Drops below altitude 10° 04:27:49 10° 36° (NE) 1,785 6.0 -15.1°
Sets 04:30:07 0° 45° (NE) 2,672 7.2 -14.8°
